Regional Weather Roundup
Issued by NWS

Home | Current Version | Previous Version | Text Only | Print | Product List | Glossary Off
Versions: 1 2 3 4 5 6 7 8 9 10 11 12 13 14 15 16 17 18 19 20 21 22 23 24 25 26 27 28 29 30 31 32 33 34 35 36 37 38 39 40 41 42 43 44 45 46 47 48 49 50

000
ASUS43 KOAX 271210
RWRNE

WEATHER ROUNDUP FOR NEBRASKA
NATIONAL WEATHER SERVICE OMAHA NE
700 AM CDT WED JUL 27 2016

NOTES: SATELLITE DATA IS BEING USED TO AUGMENT CLOUD COVER ABOVE
       12000 FEET.
       "FAIR" INDICATES FEW OR NO CLOUDS BELOW 12,000 FEET WITH NO
       SIGNIFICANT WEATHER AND/OR OBSTRUCTIONS TO VISIBILITY.

  * THESE STATIONS DO NOT REPORT WEATHER SUCH AS RAIN...SNOW OR FOG.

NEZ001>004-019>022-054>056-271300-
NEBRASKA PANHANDLE

CITY           SKY/WX    TMP DP  RH WIND       PRES   REMARKS
SCOTTSBLUFF    PTCLDY    65  59  81 E7        30.16R
6HR MIN TEMP:  64; 6HR MAX TEMP:  68; 6HR PCP: TRACE;

ALLIANCE       PTCLDY    61  58  90 SE8       30.16S
6HR MIN TEMP:  61; 6HR MAX TEMP:  66; 6HR PCP:  0.02;

CHADRON        LGT RAIN  65  61  87 S8        30.12R
6HR MIN TEMP:  60; 6HR MAX TEMP:  66; 6HR PCP:  0.03;

KIMBALL        CLOUDY    57  57 100 E8        30.17S
SIDNEY         PTCLDY    60  57  89 SE10      30.17R
6HR MIN TEMP:  60; 6HR MAX TEMP:  74;

$$

NEZ057>060-069>072-079>082-271300-
SOUTHWEST NEBRASKA

CITY           SKY/WX    TMP DP  RH WIND       PRES   REMARKS
NORTH PLATTE   CLOUDY    60  58  92 NW6       30.10S
6HR MIN TEMP:  60; 6HR MAX TEMP:  64; 6HR PCP: TRACE;

IMPERIAL       PTCLDY    60  57  89 N3        30.13S
6HR MIN TEMP:  60; 6HR MAX TEMP:  70;

LEXINGTON      CLEAR     62  60  93 NW12      30.05R
MCCOOK         CLEAR     61  58  90 W9        30.08R
6HR MIN TEMP:  60; 6HR MAX TEMP:  78; 6HR PCP:  0.01;

OGALLALA       CLOUDY    63  58  86 N6        30.16R
$$

NEZ005>010-023>029-035>040-094-271300-
NORTH CENTRAL NEBRASKA

CITY           SKY/WX    TMP DP  RH WIND       PRES   REMARKS
VALENTINE      PTCLDY    61  57  87 MISG      30.07F
6HR MIN TEMP:  60; 6HR MAX TEMP:  66;

AINSWORTH        N/A    N/A N/A N/A MISG        N/A
BROKEN BOW     CLEAR     61  59  93 W14       30.04R
6HR MIN TEMP:  58; 6HR MAX TEMP:  64; 6HR PCP:  0.03;

O`NEILL        CLEAR     63  60  92 N8        30.05R
ORD            CLEAR     62  58  86 NW12      29.98R
6HR MIN TEMP:  61; 6HR MAX TEMP:  65;

THEDFORD       CLOUDY    63  60  91 W5        30.08S
$$

NEZ041-046>049-061>064-073>077-083>087-271300-
SOUTH CENTRAL NEBRASKA

CITY           SKY/WX    TMP DP  RH WIND       PRES   REMARKS
GRAND ISLAND   PTCLDY    64  60  87 W14       29.96R
6HR MIN TEMP:  64; 6HR MAX TEMP:  76; 6HR PCP:  0.06;

AURORA         PTCLDY    67  60  78 W6        29.95R
HASTINGS       PTCLDY    63  60  90 W7        29.99R
6HR MIN TEMP:  63; 6HR MAX TEMP:  73; 6HR PCP:  0.07;

HEBRON         CLOUDY    69  65  88 S3        29.93R
HOLDREGE       PTCLDY    62  59  91 W6        30.02R
KEARNEY *      CLEAR     63   7  11 W7        30.01R
YORK           CLOUDY    66  61  82 SW7       29.95R
$$

NEZ011>018-030>034-042>045-271300-
NORTHEAST NEBRASKA

CITY           SKY/WX    TMP DP  RH WIND       PRES   REMARKS
NORFOLK        CLOUDY    68  66  93 CALM      29.96R
6HR MIN TEMP:  67; 6HR MAX TEMP:  73; 6HR PCP:  0.05;

ALBION         CLEAR     63  61  93 NW13      29.98R
BLAIR          PTCLDY    71  67  85 S10G16    29.92R
FREMONT        CLOUDY    71  65  82 CALM      29.94R
TEKAMAH        CLOUDY    71  67  87 E3        29.94R
6HR MIN TEMP:  67; 6HR MAX TEMP:  71;

WAYNE          CLOUDY    69  67  93 N3        29.97R
$$

NEZ050>053-065>068-078-088>093-271300-
SOUTHEAST NEBRASKA

CITY           SKY/WX    TMP DP  RH WIND       PRES   REMARKS
LINCOLN        PTCLDY    74  67  78 SE7       29.93R
6HR MIN TEMP:  69; 6HR MAX TEMP:  74; 6HR PCP: TRACE;

OMAHA EPPLEY   PTCLDY    73  66  78 S10       29.92R
6HR MIN TEMP:  72; 6HR MAX TEMP:  75;

BEATRICE       CLOUDY    70  66  85 S8        29.92R
FALLS CITY     CLOUDY    66  66 100 SE5       29.96F
6HR MIN TEMP:  65; 6HR MAX TEMP:  70;

NEBRASKA CITY  CLOUDY    67  67 100 S6        29.95R
PLATTSMOUTH    CLEAR     69  67  94 S7        29.95R
$$

NEZ044-045-051>053-067-271300-
OMAHA AREA

CITY           SKY/WX    TMP DP  RH WIND       PRES   REMARKS
OMAHA EPPLEY   PTCLDY    73  66  78 S10       29.92R
6HR MIN TEMP:  72; 6HR MAX TEMP:  75;

BLAIR          PTCLDY    71  67  85 S10G16    29.92R
FREMONT        CLOUDY    71  65  82 CALM      29.94R
MILLARD        CLEAR     70  67  90 SE6       29.92R
OFFUTT AFB     CLEAR     69  68  96 SE7       29.93R
PLATTSMOUTH    CLEAR     69  67  94 S7        29.95R
WAHOO          FAIR      68  65  92 SE8       29.91R
$$




USA.gov is the U.S. government's official web portal to all federal, state and local government web resources and services.